[[{"header":{"parameterUnit":"m.s-1","parameterCategory":1,"la1":30.2992,"la2":30.254,"lo1":-89.0895,"lo2":-89.0443,"dy":0.0025,"dx":0.0025,"nx":19,"ny":19,"refTime":"2026-03-23T03:00:00:Z","depth":0,"parameterNumber":2,"parameterNumberName":"U-component_of_WINDS"},"data":[0,0,0,-0.327,-0.3271,-0.3312,-0.3313,-0.3378,-0.3378,0,0,0,0,0,0,0,0,0,0,0,-0.3264,-0.3264,-0.327,-0.3271,-0.3312,-0.3313,-0.3378,-0.3378,0,0,0,0,0,0,0,0,0,0,0,-0.3263,-0.3264,-0.3265,-0.3271,-0.3312,-0.3313,-0.3377,-0.3342,0,0,0,0,0,0,0,0,0,0,-0.33,-0.33,-0.3264,-0.3265,-0.3271,-0.3312,-0.3313,-0.334,-0.3344,-0.3364,0,-0.3381,0,-0.3381,-0.3383,-0.3384,0,0,0,-0.3267,-0.3296,-0.3302,-0.3265,-0.3272,-0.3312,-0.3293,-0.3342,-0.3347,-0.3369,-0.3382,-0.3384,-0.3382,-0.3384,-0.3384,-0.3507,-0.3508,0,0,-0.3265,-0.3275,-0.3299,-0.3305,-0.3298,-0.3291,-0.3294,-0.3345,-0.336,-0.3382,-0.3386,-0.3383,-0.3384,-0.3385,-0.3506,-0.3507,0,0,0,-0.3261,-0.3273,-0.3277,-0.3303,-0.3309,-0.3293,-0.3296,-0.3358,-0.3358,-0.3386,-0.3384,-0.3385,-0.3386,-0.3505,-0.3506,-0.3555,0,0,0,-0.3259,-0.3271,-0.3277,-0.3283,-0.3309,-0.3334,-0.3308,-0.3355,-0.336,-0.3383,-0.3385,-0.3386,-0.3504,-0.3506,-0.3551,-0.3576,0,0,0,-0.3259,-0.3271,-0.3279,-0.3284,-0.3302,-0.3333,-0.3336,-0.3356,-0.3359,-0.3384,-0.3387,-0.3504,-0.3506,-0.3549,-0.3571,-0.3612,0,0,0,-0.3262,-0.3321,-0.328,-0.3345,-0.3301,-0.3361,-0.3336,-0.338,-0.3407,-0.3385,-0.3505,-0.3506,-0.3548,-0.3569,-0.3609,-0.3649,-0.3666,0,0,-0.3342,-0.3331,-0.3369,-0.3333,-0.3403,-0.3354,-0.3432,-0.3447,-0.3441,-0.3486,-0.3488,-0.3552,-0.3571,-0.3612,-0.3756,-0.377,0,0,0,-0.3398,-0.3425,-0.3441,-0.3467,-0.3479,-0.3492,-0.3494,-0.35,-0.3537,-0.3465,-0.3577,-0.3588,-0.3611,-0.363,-0.3642,-0.3662,-0.3515,-0.3515,-0.3515,-0.3527,-0.3515,-0.3577,-0.357,-0.3595,-0.3596,-0.3616,-0.3624,-0.3604,-0.3631,-0.3645,-0.3734,-0.3756,-0.3765,-0.3786,-0.3664,-0.3664,-0.3664,-0.3664,-0.3645,-0.3683,-0.3655,-0.3705,-0.3692,-0.3734,-0.3738,-0.3723,-0.3762,-0.3723,-0.3743,-0.3703,-0.378,-0.3798,-0.3668,-0.3667,-0.3667,-0.3666,-0.3666,-0.373,-0.3746,-0.3751,-0.3786,-0.3815,-0.3806,-0.3844,-0.3831,-0.3819,-0.3838,-0.3852,-0.3851,-0.385,-0.3845,-0.3846,-0.3846,-0.3846,-0.3847,-0.3847,-0.3816,-0.382,-0.3854,-0.3871,-0.3886,-0.3904,-0.3906,-0.3921,-0.3934,-0.3921,-0.3921,-0.3901,-0.3789,-0.3763,-0.3852,-0.3851,-0.385,-0.385,-0.3849,-0.3943,-0.3912,-0.3964,-0.3978,-0.3999,-0.4029,-0.4011,-0.4042,-0.4052,-0.4072,-0.4046,-0.3966,-0.3954,-0.3944,-0.3923,-0.4047,-0.4047,-0.4047,-0.4047,-0.4016,-0.4008,-0.4058,-0.4082,-0.4105,-0.4094,-0.4154,-0.4156,-0.4154,-0.416,-0.4139,-0.4108,-0.4099,-0.4093,-0.408,-0.406,-0.4217,-0.4217,-0.4217,-0.4094,-0.4087,-0.4141,-0.4137,-0.4152,-0.4165,-0.4222,-0.4253,-0.4243,-0.4224,-0.4165,-0.4157,-0.4107,-0.4091,-0.4072,-0.4053,-0.4015,0,0]},{"header":{"parameterUnit":"m.s-1","parameterCategory":1,"la1":30.2992,"la2":30.254,"lo1":-89.0895,"lo2":-89.0443,"dy":0.0025,"dx":0.0025,"nx":19,"ny":19,"refTime":"2026-03-23T03:00:00:Z","depth":0,"parameterNumber":3,"parameterNumberName":"V-component_of_WINDS"},"data":[0,0,0,-0.3757,-0.3758,-0.3809,-0.3809,-0.3883,-0.3884,0,0,0,0,0,0,0,0,0,0,0,-0.3747,-0.3747,-0.3757,-0.3758,-0.3809,-0.3809,-0.3883,-0.3884,0,0,0,0,0,0,0,0,0,0,0,-0.3746,-0.3747,-0.3748,-0.3758,-0.3809,-0.3809,-0.3883,-0.3841,0,0,0,0,0,0,0,0,0,0,-0.379,-0.3786,-0.3747,-0.3748,-0.3759,-0.3809,-0.3809,-0.3839,-0.3844,-0.3864,0,-0.3883,0,-0.3885,-0.3889,-0.389,0,0,0,-0.3754,-0.3782,-0.3791,-0.3748,-0.3759,-0.3809,-0.3785,-0.3842,-0.3847,-0.387,-0.3884,-0.3887,-0.3886,-0.389,-0.389,-0.402,-0.4021,0,0,-0.3751,-0.3759,-0.3788,-0.3795,-0.3788,-0.3783,-0.3786,-0.3845,-0.386,-0.3884,-0.3888,-0.3887,-0.3891,-0.3891,-0.402,-0.402,0,0,0,-0.3746,-0.3757,-0.3764,-0.3792,-0.3801,-0.3785,-0.3788,-0.3858,-0.3859,-0.3889,-0.3888,-0.3891,-0.3892,-0.4019,-0.402,-0.4068,0,0,0,-0.3744,-0.3754,-0.3763,-0.3769,-0.38,-0.383,-0.38,-0.3855,-0.3862,-0.3888,-0.3891,-0.3893,-0.4018,-0.4019,-0.4065,-0.4089,0,0,0,-0.3742,-0.3753,-0.3763,-0.3769,-0.3791,-0.3829,-0.3834,-0.3857,-0.3862,-0.389,-0.3893,-0.4017,-0.4019,-0.4062,-0.4085,-0.4127,0,0,0,-0.3742,-0.3804,-0.3764,-0.3833,-0.3791,-0.3858,-0.3833,-0.3883,-0.3912,-0.3891,-0.4018,-0.402,-0.4061,-0.4082,-0.4124,-0.4165,-0.4182,0,0,-0.3824,-0.3814,-0.3854,-0.382,-0.3896,-0.3849,-0.3933,-0.3952,-0.3947,-0.3996,-0.3999,-0.4066,-0.4084,-0.4126,-0.4275,-0.4289,0,0,0,-0.3883,-0.3912,-0.3931,-0.396,-0.3977,-0.3993,-0.4,-0.4007,-0.4048,-0.3974,-0.4091,-0.4102,-0.4127,-0.4146,-0.4158,-0.4179,-0.4029,-0.4028,-0.4028,-0.4012,-0.4003,-0.4069,-0.4067,-0.4096,-0.4102,-0.4124,-0.4135,-0.4117,-0.4145,-0.416,-0.4251,-0.4274,-0.4283,-0.4305,-0.418,-0.418,-0.418,-0.418,-0.4134,-0.4174,-0.4149,-0.4205,-0.4195,-0.4242,-0.425,-0.4236,-0.4278,-0.4239,-0.426,-0.4219,-0.4299,-0.4317,-0.4184,-0.4183,-0.4183,-0.4182,-0.4182,-0.4218,-0.4236,-0.4244,-0.4286,-0.432,-0.4314,-0.4357,-0.4346,-0.4336,-0.4356,-0.4372,-0.4371,-0.437,-0.4364,-0.4365,-0.4365,-0.4365,-0.4365,-0.4366,-0.4303,-0.4311,-0.4348,-0.4372,-0.439,-0.4412,-0.4419,-0.4436,-0.4452,-0.4441,-0.4441,-0.4422,-0.4308,-0.428,-0.437,-0.437,-0.4369,-0.4368,-0.4368,-0.4432,-0.4402,-0.4459,-0.4477,-0.4505,-0.4539,-0.4524,-0.4561,-0.4573,-0.4595,-0.457,-0.4487,-0.4476,-0.4466,-0.4444,-0.4571,-0.4571,-0.4571,-0.4571,-0.4505,-0.4498,-0.4555,-0.4585,-0.4612,-0.4605,-0.4671,-0.4677,-0.4679,-0.4686,-0.4666,-0.4634,-0.4625,-0.4619,-0.4606,-0.4585,-0.4745,-0.4745,-0.4746,-0.4585,-0.458,-0.4638,-0.464,-0.466,-0.4679,-0.4741,-0.4776,-0.4771,-0.4752,-0.4692,-0.4685,-0.4633,-0.4617,-0.4598,-0.4579,-0.4539,0,0]}]]